Time,TemperatureF,DewpointF,PressureIn,WindDirection,WindDirectionDegrees,WindSpeedMPH,WindSpeedGustMPH,Humidity,HourlyPrecipIn,Conditions,Clouds,dailyrainin,SoftwareType,DateUTC
2013-07-30 00:03:00,70.0,61.0,30.06,SE,133,2.0,-999.0,73,-99.99,,,-99.99,,2013-07-30 05:03:00,
2013-07-30 00:13:00,70.0,61.0,30.06,SE,133,2.0,-999.0,73,-99.99,,,-99.99,,2013-07-30 05:13:00,
2013-07-30 00:23:00,70.0,61.0,30.06,SE,131,2.0,-999.0,73,-99.99,,,-99.99,,2013-07-30 05:23:00,
2013-07-30 00:33:00,70.0,61.0,30.06,ESE,112,3.0,-999.0,73,-99.99,,,-99.99,,2013-07-30 05:33:00,
2013-07-30 00:45:00,70.0,61.0,30.06,ESE,112,3.0,-999.0,73,-99.99,,,-99.99,,2013-07-30 05:45:00,
2013-07-30 00:53:00,70.0,61.0,30.06,SE,138,2.0,-999.0,73,-99.99,,,-99.99,,2013-07-30 05:53:00,
2013-07-30 01:03:00,70.0,61.0,30.06,SE,135,2.0,-999.0,73,-99.99,,,-99.99,,2013-07-30 06:03:00,
2013-07-30 01:13:00,70.0,61.0,30.06,SE,135,2.0,-999.0,73,-99.99,,,-99.99,,2013-07-30 06:13:00,
2013-07-30 01:23:00,70.0,61.0,30.06,SE,135,1.0,-999.0,74,-99.99,,,-99.99,,2013-07-30 06:23:00,
2013-07-30 01:33:00,70.0,61.0,30.06,SE,135,2.0,-999.0,74,-99.99,,,-99.99,,2013-07-30 06:33:00,
2013-07-30 01:43:00,70.0,61.0,30.06,SE,135,2.0,-999.0,74,-99.99,,,-99.99,,2013-07-30 06:43:00,
2013-07-30 01:53:00,69.0,61.0,30.06,SE,135,3.0,-999.0,75,-99.99,,,-99.99,,2013-07-30 06:53:00,
2013-07-30 02:03:00,69.0,61.0,30.06,ESE,112,3.0,-999.0,75,-99.99,,,-99.99,,2013-07-30 07:03:00,
2013-07-30 02:13:00,69.0,61.0,30.06,ESE,112,3.0,-999.0,75,-99.99,,,-99.99,,2013-07-30 07:13:00,
2013-07-30 02:23:00,69.0,61.0,30.05,SE,132,4.0,-999.0,75,-99.99,,,-99.99,,2013-07-30 07:23:00,
2013-07-30 02:33:00,69.0,61.0,30.05,SE,126,4.0,-999.0,76,-99.99,,,-99.99,,2013-07-30 07:33:00,
2013-07-30 02:43:00,69.0,61.0,30.05,SE,126,4.0,-999.0,76,-99.99,,,-99.99,,2013-07-30 07:43:00,
2013-07-30 02:53:00,69.0,61.0,30.06,SSE,147,3.0,-999.0,76,-99.99,,,-99.99,,2013-07-30 07:53:00,
2013-07-30 03:03:00,69.0,61.0,30.05,SE,133,4.0,-999.0,77,-99.99,,,-99.99,,2013-07-30 08:03:00,
2013-07-30 03:13:00,69.0,61.0,30.05,SE,133,4.0,-999.0,77,-99.99,,,-99.99,,2013-07-30 08:13:00,
2013-07-30 03:23:00,69.0,62.0,30.05,ESE,114,3.0,-999.0,78,-99.99,,,-99.99,,2013-07-30 08:23:00,
2013-07-30 03:33:00,69.0,62.0,30.04,ESE,106,3.0,-999.0,78,-99.99,,,-99.99,,2013-07-30 08:33:00,
2013-07-30 03:43:00,69.0,62.0,30.04,ESE,106,3.0,-999.0,78,-99.99,,,-99.99,,2013-07-30 08:43:00,
2013-07-30 03:53:00,68.0,61.0,30.04,SE,131,4.0,-999.0,79,-99.99,,,-99.99,,2013-07-30 08:53:00,
2013-07-30 04:03:00,68.0,62.0,30.04,SE,143,2.0,-999.0,80,-99.99,,,-99.99,,2013-07-30 09:03:00,
2013-07-30 04:13:00,68.0,62.0,30.04,SE,143,2.0,-999.0,80,-99.99,,,-99.99,,2013-07-30 09:13:00,
2013-07-30 04:23:00,68.0,62.0,30.04,SSE,148,3.0,-999.0,80,-99.99,,,-99.99,,2013-07-30 09:23:00,
2013-07-30 04:33:00,68.0,62.0,30.04,SE,135,3.0,-999.0,80,-99.99,,,-99.99,,2013-07-30 09:33:00,
2013-07-30 04:43:00,68.0,62.0,30.04,SE,135,3.0,-999.0,80,-99.99,,,-99.99,,2013-07-30 09:43:00,
2013-07-30 04:53:00,68.0,62.0,30.04,SE,124,3.0,-999.0,80,-99.99,,,-99.99,,2013-07-30 09:53:00,
2013-07-30 05:03:00,68.0,62.0,30.04,SE,126,3.0,-999.0,80,-99.99,,,-99.99,,2013-07-30 10:03:00,
2013-07-30 05:12:00,68.0,62.0,30.04,SE,126,3.0,-999.0,80,-99.99,,,-99.99,,2013-07-30 10:12:00,
2013-07-30 05:23:00,68.0,62.0,30.04,SSE,147,3.0,-999.0,81,-99.99,,,-99.99,,2013-07-30 10:23:00,
2013-07-30 05:32:00,68.0,62.0,30.04,SE,124,4.0,-999.0,81,-99.99,,,-99.99,,2013-07-30 10:32:00,
2013-07-30 05:44:00,68.0,62.0,30.04,SE,124,4.0,-999.0,81,-99.99,,,-99.99,,2013-07-30 10:44:00,
2013-07-30 05:52:00,68.0,62.0,30.03,ESE,108,3.0,-999.0,81,-99.99,,,-99.99,,2013-07-30 10:52:00,
2013-07-30 06:02:00,68.0,62.0,30.03,SE,145,4.0,-999.0,80,-99.99,,,-99.99,,2013-07-30 11:02:00,
2013-07-30 06:11:00,68.0,62.0,30.03,SE,145,4.0,-999.0,80,-99.99,,,-99.99,,2013-07-30 11:11:00,
2013-07-30 06:22:00,69.0,62.0,30.03,SSE,154,5.0,-999.0,79,-99.99,,,-99.99,,2013-07-30 11:22:00,
2013-07-30 06:33:00,69.0,61.0,30.04,ESE,122,4.0,-999.0,77,-99.99,,,-99.99,,2013-07-30 11:33:00,
2013-07-30 06:43:00,69.0,61.0,30.04,ESE,122,4.0,-999.0,77,-99.99,,,-99.99,,2013-07-30 11:43:00,
2013-07-30 06:53:00,69.0,61.0,30.04,SE,135,3.0,-999.0,76,-99.99,,,-99.99,,2013-07-30 11:53:00,
2013-07-30 07:12:00,69.0,61.0,30.05,SSE,166,3.0,-999.0,77,-99.99,,,-99.99,,2013-07-30 12:12:00,
2013-07-30 07:22:00,69.0,62.0,30.05,South,176,3.0,-999.0,78,-99.99,,,-99.99,,2013-07-30 12:22:00,
2013-07-30 07:33:00,68.0,62.0,30.06,South,172,4.0,-999.0,82,-99.99,,,-99.99,,2013-07-30 12:33:00,
2013-07-30 07:42:00,68.0,62.0,30.06,South,172,4.0,-999.0,82,-99.99,,,-99.99,,2013-07-30 12:42:00,
2013-07-30 07:53:00,67.0,62.0,30.06,SSE,154,5.0,-999.0,85,-99.99,,,-99.99,,2013-07-30 12:53:00,
2013-07-30 08:02:00,66.0,62.0,30.07,South,175,4.0,-999.0,88,-99.99,,,-99.99,,2013-07-30 13:02:00,
2013-07-30 08:12:00,66.0,62.0,30.07,South,175,4.0,-999.0,88,-99.99,,,-99.99,,2013-07-30 13:12:00,
2013-07-30 08:22:00,65.0,62.0,30.06,South,179,4.0,-999.0,90,-99.99,,,-99.99,,2013-07-30 13:22:00,
2013-07-30 08:32:00,65.0,62.0,30.07,SSE,153,5.0,-999.0,91,-99.99,,,-99.99,,2013-07-30 13:32:00,
2013-07-30 08:43:00,65.0,62.0,30.07,SSE,153,5.0,-999.0,91,-99.99,,,-99.99,,2013-07-30 13:43:00,
2013-07-30 08:52:00,65.0,63.0,30.07,SSE,148,5.0,-999.0,93,-99.99,,,-99.99,,2013-07-30 13:52:00,
2013-07-30 09:02:00,65.0,63.0,30.06,East,99,5.0,-999.0,94,-99.99,,,-99.99,,2013-07-30 14:02:00,
2013-07-30 09:12:00,65.0,63.0,30.06,East,99,5.0,-999.0,94,-99.99,,,-99.99,,2013-07-30 14:12:00,
2013-07-30 09:22:00,65.0,63.0,30.06,SE,141,5.0,-999.0,94,-99.99,,,-99.99,,2013-07-30 14:22:00,
2013-07-30 09:33:00,65.0,64.0,30.04,SE,137,5.0,-999.0,95,-99.99,,,-99.99,,2013-07-30 14:33:00,
2013-07-30 09:43:00,65.0,64.0,30.04,SE,137,5.0,-999.0,95,-99.99,,,-99.99,,2013-07-30 14:43:00,
2013-07-30 09:53:00,65.0,64.0,30.04,SE,141,5.0,-999.0,95,-99.99,,,-99.99,,2013-07-30 14:53:00,
2013-07-30 10:02:00,65.0,64.0,30.04,SSE,166,6.0,-999.0,96,-99.99,,,-99.99,,2013-07-30 15:02:00,
2013-07-30 10:12:00,65.0,64.0,30.04,SSE,166,6.0,-999.0,96,-99.99,,,-99.99,,2013-07-30 15:12:00,
2013-07-30 10:23:00,65.0,64.0,30.03,SE,139,6.0,-999.0,96,-99.99,,,-99.99,,2013-07-30 15:23:00,
2013-07-30 10:33:00,65.0,64.0,30.03,SE,139,6.0,-999.0,96,-99.99,,,-99.99,,2013-07-30 15:33:00,
2013-07-30 10:43:00,66.0,65.0,30.03,SSE,160,6.0,-999.0,96,-99.99,,,-99.99,,2013-07-30 15:43:00,
2013-07-30 10:52:00,66.0,65.0,30.03,SSE,158,5.0,-999.0,96,-99.99,,,-99.99,,2013-07-30 15:52:00,
2013-07-30 11:02:00,66.0,65.0,30.03,SSE,158,5.0,-999.0,96,-99.99,,,-99.99,,2013-07-30 16:02:00,
2013-07-30 11:12:00,66.0,65.0,30.03,SE,134,4.0,-999.0,96,-99.99,,,-99.99,,2013-07-30 16:12:00,
2013-07-30 11:22:00,66.0,65.0,30.03,SE,142,5.0,-999.0,96,-99.99,,,-99.99,,2013-07-30 16:22:00,
2013-07-30 11:33:00,66.0,65.0,30.03,SE,142,5.0,-999.0,96,-99.99,,,-99.99,,2013-07-30 16:33:00,
2013-07-30 11:44:00,66.0,65.0,30.03,South,177,5.0,-999.0,96,-99.99,,,-99.99,,2013-07-30 16:44:00,
2013-07-30 11:52:00,66.0,65.0,30.03,SSE,164,4.0,-999.0,96,-99.99,,,-99.99,,2013-07-30 16:52:00,
2013-07-30 12:02:00,66.0,65.0,30.03,SSE,164,4.0,-999.0,96,-99.99,,,-99.99,,2013-07-30 17:02:00,
2013-07-30 12:12:00,67.0,66.0,30.03,SSE,148,4.0,-999.0,96,-99.99,,,-99.99,,2013-07-30 17:12:00,
2013-07-30 12:22:00,67.0,66.0,30.02,SSE,149,4.0,-999.0,96,-99.99,,,-99.99,,2013-07-30 17:22:00,
2013-07-30 12:32:00,67.0,66.0,30.02,SSE,149,4.0,-999.0,96,-99.99,,,-99.99,,2013-07-30 17:32:00,
2013-07-30 12:43:00,67.0,66.0,30.02,SSE,151,5.0,-999.0,96,-99.99,,,-99.99,,2013-07-30 17:43:00,
2013-07-30 12:53:00,68.0,67.0,30.02,SSE,156,6.0,-999.0,95,-99.99,,,-99.99,,2013-07-30 17:53:00,
2013-07-30 13:03:00,68.0,67.0,30.02,SSE,156,6.0,-999.0,95,-99.99,,,-99.99,,2013-07-30 18:03:00,
2013-07-30 13:12:00,68.0,67.0,30.02,SSE,156,6.0,-999.0,95,-99.99,,,-99.99,,2013-07-30 18:12:00,
2013-07-30 13:23:00,68.0,66.0,30.01,South,174,6.0,-999.0,94,-99.99,,,-99.99,,2013-07-30 18:23:00,
2013-07-30 13:32:00,68.0,66.0,30.01,South,174,6.0,-999.0,94,-99.99,,,-99.99,,2013-07-30 18:32:00,
2013-07-30 13:43:00,69.0,67.0,30.01,SSE,154,7.0,-999.0,92,-99.99,,,-99.99,,2013-07-30 18:43:00,
2013-07-30 13:52:00,70.0,67.0,30.00,South,186,6.0,-999.0,91,-99.99,,,-99.99,,2013-07-30 18:52:00,
2013-07-30 14:03:00,70.0,67.0,30.00,South,186,6.0,-999.0,91,-99.99,,,-99.99,,2013-07-30 19:03:00,
2013-07-30 14:12:00,71.0,68.0,29.99,SSE,168,7.0,-999.0,89,-99.99,,,-99.99,,2013-07-30 19:12:00,
2013-07-30 14:22:00,71.0,68.0,29.99,SSE,160,5.0,-999.0,89,-99.99,,,-99.99,,2013-07-30 19:22:00,
2013-07-30 14:33:00,71.0,68.0,29.99,SSE,160,5.0,-999.0,89,-99.99,,,-99.99,,2013-07-30 19:33:00,
2013-07-30 14:44:00,71.0,67.0,29.98,SE,145,6.0,-999.0,88,-99.99,,,-99.99,,2013-07-30 19:44:00,
2013-07-30 14:52:00,72.0,68.0,29.98,SSE,153,5.0,-999.0,87,-99.99,,,-99.99,,2013-07-30 19:52:00,
2013-07-30 15:02:00,72.0,68.0,29.98,SSE,153,5.0,-999.0,87,-99.99,,,-99.99,,2013-07-30 20:02:00,
2013-07-30 15:12:00,72.0,68.0,29.97,SSW,197,6.0,-999.0,87,-99.99,,,-99.99,,2013-07-30 20:12:00,
2013-07-30 15:22:00,71.0,67.0,29.96,SSE,150,6.0,-999.0,88,-99.99,,,-99.99,,2013-07-30 20:22:00,
2013-07-30 15:33:00,71.0,67.0,29.96,SSE,150,6.0,-999.0,88,-99.99,,,-99.99,,2013-07-30 20:33:00,
2013-07-30 15:43:00,71.0,67.0,29.96,SE,145,5.0,-999.0,88,-99.99,,,-99.99,,2013-07-30 20:43:00,
2013-07-30 15:52:00,71.0,68.0,29.96,SSE,149,5.0,-999.0,89,-99.99,,,-99.99,,2013-07-30 20:52:00,
2013-07-30 16:02:00,71.0,68.0,29.96,SSE,149,5.0,-999.0,89,-99.99,,,-99.99,,2013-07-30 21:02:00,
2013-07-30 16:12:00,71.0,68.0,29.96,SE,145,4.0,-999.0,90,-99.99,,,-99.99,,2013-07-30 21:12:00,
2013-07-30 16:22:00,71.0,68.0,29.96,ESE,111,5.0,-999.0,90,-99.99,,,-99.99,,2013-07-30 21:22:00,
2013-07-30 16:32:00,71.0,68.0,29.96,ESE,111,5.0,-999.0,90,-99.99,,,-99.99,,2013-07-30 21:32:00,
2013-07-30 16:42:00,70.0,67.0,29.96,SE,140,5.0,-999.0,90,-99.99,,,-99.99,,2013-07-30 21:42:00,
2013-07-30 16:52:00,71.0,68.0,29.96,ESE,112,5.0,-999.0,90,-99.99,,,-99.99,,2013-07-30 21:52:00,
2013-07-30 17:02:00,71.0,68.0,29.96,ESE,112,5.0,-999.0,90,-99.99,,,-99.99,,2013-07-30 22:02:00,
2013-07-30 17:12:00,71.0,68.0,29.96,SE,142,4.0,-999.0,90,-99.99,,,-99.99,,2013-07-30 22:12:00,
2013-07-30 17:22:00,71.0,68.0,29.96,SSE,168,4.0,-999.0,90,-99.99,,,-99.99,,2013-07-30 22:22:00,
2013-07-30 17:32:00,71.0,68.0,29.96,SSE,168,4.0,-999.0,90,-99.99,,,-99.99,,2013-07-30 22:32:00,
2013-07-30 17:43:00,71.0,68.0,29.96,ESE,108,4.0,-999.0,90,-99.99,,,-99.99,,2013-07-30 22:43:00,
2013-07-30 17:52:00,71.0,68.0,29.95,ESE,110,4.0,-999.0,90,-99.99,,,-99.99,,2013-07-30 22:52:00,
2013-07-30 18:02:00,71.0,68.0,29.95,ESE,110,4.0,-999.0,90,-99.99,,,-99.99,,2013-07-30 23:02:00,
2013-07-30 18:12:00,71.0,68.0,29.96,SE,133,5.0,-999.0,90,-99.99,,,-99.99,,2013-07-30 23:12:00,
2013-07-30 18:22:00,71.0,68.0,29.96,SE,131,5.0,-999.0,90,-99.99,,,-99.99,,2013-07-30 23:22:00,
2013-07-30 18:32:00,71.0,68.0,29.96,SE,131,5.0,-999.0,90,-99.99,,,-99.99,,2013-07-30 23:32:00,
2013-07-30 18:42:00,70.0,67.0,29.96,SE,146,5.0,-999.0,90,-99.99,,,-99.99,,2013-07-30 23:42:00,
2013-07-30 18:53:00,70.0,67.0,29.96,SE,135,6.0,-999.0,91,-99.99,,,-99.99,,2013-07-30 23:53:00,
2013-07-30 19:02:00,70.0,67.0,29.96,SE,135,6.0,-999.0,91,-99.99,,,-99.99,,2013-07-31 00:02:00,
2013-07-30 19:12:00,70.0,67.0,29.96,South,179,5.0,-999.0,91,-99.99,,,-99.99,,2013-07-31 00:12:00,
2013-07-30 19:22:00,70.0,67.0,29.96,SE,145,5.0,-999.0,91,-99.99,,,-99.99,,2013-07-31 00:22:00,
2013-07-30 19:32:00,70.0,67.0,29.96,SE,145,5.0,-999.0,91,-99.99,,,-99.99,,2013-07-31 00:32:00,
2013-07-30 19:43:00,70.0,68.0,29.96,SSE,151,4.0,-999.0,92,-99.99,,,-99.99,,2013-07-31 00:43:00,
2013-07-30 19:53:00,70.0,68.0,29.95,SSE,157,3.0,-999.0,92,-99.99,,,-99.99,,2013-07-31 00:53:00,
2013-07-30 20:02:00,70.0,68.0,29.95,SSE,157,3.0,-999.0,92,-99.99,,,-99.99,,2013-07-31 01:02:00,
2013-07-30 20:12:00,70.0,68.0,29.95,SSE,158,4.0,-999.0,92,-99.99,,,-99.99,,2013-07-31 01:12:00,
2013-07-30 20:32:00,70.0,68.0,29.96,SSE,153,3.0,-999.0,93,-99.99,,,-99.99,,2013-07-31 01:32:00,
2013-07-30 20:42:00,69.0,67.0,29.96,South,188,5.0,-999.0,93,-99.99,,,-99.99,,2013-07-31 01:42:00,
2013-07-30 20:52:00,69.0,67.0,29.96,South,188,5.0,-999.0,93,-99.99,,,-99.99,,2013-07-31 01:52:00,
2013-07-30 21:02:00,69.0,67.0,29.96,South,172,3.0,-999.0,93,-99.99,,,-99.99,,2013-07-31 02:02:00,
2013-07-30 21:12:00,69.0,67.0,29.96,SSE,149,3.0,-999.0,94,-99.99,,,-99.99,,2013-07-31 02:12:00,
2013-07-30 21:22:00,69.0,67.0,29.96,SSE,149,3.0,-999.0,94,-99.99,,,-99.99,,2013-07-31 02:22:00,
2013-07-30 21:32:00,69.0,67.0,29.97,South,181,3.0,-999.0,94,-99.99,,,-99.99,,2013-07-31 02:32:00,
2013-07-30 21:42:00,69.0,67.0,29.97,South,181,3.0,-999.0,94,-99.99,,,-99.99,,2013-07-31 02:42:00,
2013-07-30 21:52:00,68.0,67.0,29.97,South,176,3.0,-999.0,96,-99.99,,,-99.99,,2013-07-31 02:52:00,
2013-07-30 22:02:00,68.0,67.0,29.97,South,176,3.0,-999.0,96,-99.99,,,-99.99,,2013-07-31 03:02:00,
2013-07-30 22:12:00,68.0,67.0,29.97,SSE,151,2.0,-999.0,96,-99.99,,,-99.99,,2013-07-31 03:12:00,
2013-07-30 22:22:00,68.0,67.0,29.97,SSE,155,2.0,-999.0,96,-99.99,,,-99.99,,2013-07-31 03:22:00,
2013-07-30 22:32:00,68.0,67.0,29.97,SSE,155,2.0,-999.0,96,-99.99,,,-99.99,,2013-07-31 03:32:00,
2013-07-30 22:42:00,68.0,67.0,29.97,SE,127,3.0,-999.0,97,-99.99,,,-99.99,,2013-07-31 03:42:00,
2013-07-30 22:52:00,68.0,67.0,29.97,ESE,118,1.0,-999.0,97,-99.99,,,-99.99,,2013-07-31 03:52:00,
2013-07-30 23:02:00,68.0,67.0,29.97,ESE,118,1.0,-999.0,97,-99.99,,,-99.99,,2013-07-31 04:02:00,
2013-07-30 23:12:00,68.0,67.0,29.98,ESE,108,1.0,-999.0,97,-99.99,,,-99.99,,2013-07-31 04:12:00,
2013-07-30 23:22:00,68.0,67.0,29.98,ESE,108,1.0,-999.0,97,-99.99,,,-99.99,,2013-07-31 04:22:00,
2013-07-30 23:32:00,68.0,67.0,29.98,ESE,108,1.0,-999.0,97,-99.99,,,-99.99,,2013-07-31 04:32:00,
2013-07-30 23:42:00,68.0,67.0,29.98,ESE,108,1.0,-999.0,97,-99.99,,,-99.99,,2013-07-31 04:42:00,
2013-07-30 23:52:00,68.0,67.0,29.98,ESE,108,1.0,-999.0,97,-99.99,,,-99.99,,2013-07-31 04:52:00,